Skip Page Navigation
NASA JPL Caltech
NASA Logo - Jet Propulsion Laboratory + View the NASA Portal
+ Center for Near-Earth Object Studies
JPL Home Earth Solar System Stars & Galaxies Technology
JPL Solar System Dynamics
BODIES ORBITS EPHEMERIDES TOOLS PHYSICAL DATA DISCOVERY FAQ SITE MAP
JPL Small-Body Database Browser
Search: [ help ]  
65426 (2002 TS135)
Classification: Main-belt Asteroid          SPK-ID: 2065426
Ephemeris | Orbit Diagram | Orbital Elements | Mission Design | Physical Parameters | Discovery Circumstances ]

[ hide orbit diagram ]

For accurate long-term ephemerides, please instead use our Horizons system.This orbit viewer was implemented using two-body methods, and hence should not be used for determining accurate long-term trajectories (over several years or decades) or planetary encounter circumstances.


[ revert to old Java-based viewer ]

Orbital Elements at Epoch 2459000.5 (2020-May-31.0) TDB
Reference: JPL 17 (heliocentric ecliptic J2000)
 Element Value Uncertainty (1-sigma)   Units 
e .1531755275830509 6.6383e-08  
a 2.479287132200136 1.9662e-08 au
q 2.099521017695511 1.5465e-07 au
i 8.254216092755364 4.8359e-06 deg
node 117.8017508820353 3.8929e-05 deg
peri 211.5755198690161 5.7946e-05 deg
M 229.483755954679 5.4028e-05 deg
tp 2459517.452610739110
(2021-Oct-29.95261074)
0.00021896 TDB
period 1425.898678186422
3.90
1.6962e-05
4.644e-08
d
yr
n .2524723569123988 3.0034e-09 deg/d
Q 2.859053246704761 2.2674e-08 au
  Orbit Determination Parameters
   # obs. used (total)      527  
   data-arc span      10257 days (28.08 yr)  
   first obs. used      1992-01-02  
   last obs. used      2020-02-01  
   planetary ephem.      DE431  
   SB-pert. ephem.      SB431-N16  
   condition code      0  
   norm. resid. RMS      .57873  
   source      ORB  
   producer      Otto Matic  
   solution date      2020-Feb-23 14:39:29  

Additional Information
 Earth MOID = 1.09264 au 
 Jupiter MOID = 2.4731 au 
 T_jup = 3.449 
[ hide covariance matrix ]
Orbital Elements at Epoch 2456554.5 (2013-Sep-19.0) TDB
Reference: JPL 17 (heliocentric ecliptic J2000)
 Element Value Uncertainty (1-sigma)   Units 
e .1536168110342259 6.5645e-08  
q 2.098801197599922 1.5285e-07 au
tp 2456661.480086698886
(2014-Jan-03.98008670)
0.00019131 TDB
node 117.8899455746016 3.8849e-05 deg
peri 210.788698553728 5.7773e-05 deg
i 8.261477586504004 4.8415e-06 deg
  Orbit Determination Parameters
   # obs. used (total)      527  
   data-arc span      10257 days (28.08 yr)  
   first obs. used      1992-01-02  
   last obs. used      2020-02-01  
   planetary ephem.      DE431  
   SB-pert. ephem.      SB431-N16  
   condition code      0  
   norm. resid. RMS      .57873  
   source      ORB  
   producer      Otto Matic  
   solution date      2020-Feb-23 14:39:29  

Additional Information
 Jupiter MOID = 2.4731 au 
 T_jup = 3.449 
Orbit Covariance (6×6)
  e q tp node peri i
e 4.309256151523783E-15 -9.996141101649793E-15 9.232923493595406E-12 -9.019606958319173E-14 1.98891493577107E-12 -5.702755602787931E-15
q -9.996141101649793E-15 2.336170080896428E-14 -2.044129688807144E-11 2.001208261512865E-13 -4.390338749886761E-12 1.248676575110493E-14
tp 9.232923493595406E-12 -2.044129688807144E-11 3.65993071118975E-8 -3.122183316432033E-10 8.218944356249964E-9 -3.329133924561398E-11
node -9.019606958319173E-14 2.001208261512865E-13 -3.122183316432033E-10 1.509216801917055E-9 -1.560139745756463E-9 -4.35700480125107E-11
peri 1.98891493577107E-12 -4.390338749886761E-12 8.218944356249964E-9 -1.560139745756463E-9 3.337762757585126E-9 3.580777624654055E-11
i -5.702755602787931E-15 1.248676575110493E-14 -3.329133924561398E-11 -4.35700480125107E-11 3.580777624654055E-11 2.343965679045881E-11

Ephemeris | Orbit Diagram | Orbital Elements | Mission Design | Physical Parameters | Discovery Circumstances ]

Physical Parameter Table
Parameter Symbol Value Units Sigma Reference Notes
absolute magnitude H 15.5   n/a MPO453048  

65426 (2002 TS135)          Discovered 2002-Oct-04 by LINEAR at Socorro
Reference: 20030614/Numbers.arcLast Updated: 2004-04-19
Ephemeris | Orbit Diagram | Orbital Elements | Mission Design | Physical Parameters | Discovery Circumstances ]
ABOUT SSD CREDITS/AWARDS PRIVACY/COPYRIGHT GLOSSARY LINKS
FirstGov 2020-Jul-09 11:29 UT
(server date/time)  
NASA Home Page
Site Manager:   Ryan S. Park
Webmaster  Alan B. Chamberlin